📊 Raw Sensor Data
Showing records 44676 to 44700 of 85,040 total
| ID | Distance (ft) | Battery V | Battery A | Int Temp (°F) | Int Humid (%) | Ext Temp (°F) | Solar V | RSSI | SNR | Time Stamp |
|---|---|---|---|---|---|---|---|---|---|---|
| 40377 | 16.2 | 3.96 | 0 | 62 | 39 | 67 | 5.10 | -80 | 8 | 05/12/2025 09:45 AM |
| 40376 | 16.1 | 3.96 | 0 | 59 | 40 | 63 | 5.10 | -79 | 7 | 05/12/2025 09:30 AM |
| 40375 | 16.0 | 3.96 | 0 | 56 | 41 | 58 | 5.10 | -76 | 5 | 05/12/2025 09:15 AM |
| 40374 | 16.0 | 4.01 | 32 | 53 | 42 | 52 | 4.50 | -76 | 7 | 05/12/2025 08:30 AM |
| 40373 | 16.0 | 3.97 | 13 | 53 | 43 | 52 | 4.50 | -78 | 6 | 05/12/2025 08:15 AM |
| 40372 | 16.1 | 4.01 | 0 | 55 | 41 | 56 | 4.50 | -68 | 8 | 05/12/2025 07:45 AM |
| 40371 | 16.1 | 3.97 | 16 | 55 | 41 | 54 | 4.50 | -69 | 8 | 05/12/2025 07:30 AM |
| 40370 | 16.1 | 3.95 | 11 | 55 | 41 | 54 | 4.50 | -70 | 8 | 05/12/2025 07:15 AM |
| 40369 | 16.1 | 3.96 | 18 | 55 | 41 | 55 | 4.50 | -70 | 8 | 05/12/2025 07:00 AM |
| 40368 | 16.1 | 4.02 | 10 | 55 | 41 | 57 | 4.50 | -69 | 8 | 05/12/2025 06:45 AM |
| 40367 | 16.1 | 3.99 | 0 | 52 | 42 | 55 | 4.50 | -68 | 8 | 05/12/2025 06:30 AM |
| 40366 | 16.1 | 3.94 | -5 | 51 | 42 | 52 | 4.50 | -71 | 8 | 05/12/2025 06:15 AM |
| 40365 | 16.1 | 3.87 | -10 | 51 | 42 | 52 | 4.30 | -71 | 8 | 05/12/2025 06:00 AM |
| 40364 | 16.1 | 3.88 | -5 | 51 | 42 | 52 | 0.60 | -70 | 8 | 05/12/2025 05:45 AM |
| 40363 | 16.1 | 3.88 | -5 | 50 | 43 | 51 | 0.00 | -69 | 9 | 05/12/2025 05:30 AM |
| 40362 | 16.1 | 3.88 | -5 | 51 | 43 | 51 | 0.00 | -69 | 8 | 05/12/2025 05:15 AM |
| 40361 | 16.1 | 3.94 | -5 | 52 | 42 | 52 | 0.00 | -69 | 8 | 05/12/2025 05:00 AM |
| 40360 | 16.1 | 3.88 | -5 | 53 | 42 | 53 | 0.10 | -70 | 8 | 05/12/2025 04:45 AM |
| 40359 | 16.1 | 3.88 | -5 | 53 | 42 | 53 | 0.10 | -71 | 8 | 05/12/2025 04:30 AM |
| 40358 | 16.1 | 3.88 | -5 | 53 | 42 | 53 | 0.00 | -69 | 8 | 05/12/2025 04:15 AM |
| 40357 | 16.1 | 3.88 | -5 | 52 | 42 | 53 | 0.00 | -69 | 8 | 05/12/2025 04:00 AM |
| 40356 | 16.1 | 3.94 | -5 | 52 | 41 | 53 | 0.00 | -69 | 8 | 05/12/2025 03:45 AM |
| 40355 | 16.1 | 3.88 | -5 | 52 | 41 | 53 | 0.00 | -69 | 8 | 05/12/2025 03:30 AM |
| 40354 | 16.1 | 3.94 | -5 | 52 | 41 | 52 | 0.00 | -69 | 8 | 05/12/2025 03:15 AM |
| 40353 | 16.0 | 3.88 | -5 | 51 | 42 | 53 | 0.00 | -69 | 8 | 05/12/2025 03:00 AM |